Flag for Japan Weather past 2 weeks in Shizuoka, Japan

Now
78 °F

Warm.


Feels Like: 79 °F
Forecast: 70 / 83 °F
Wind: 10 mph from West

Location: Omaezaki

Current Time: Aug 31, 2015 at 4:03:46 AM

Latest Report: Aug 31, 2015 at 3:00 AM


Visibility: 8 mi

Pressure: 29.87 "Hg

Humidity: 94%

Dew point: 76 °F

Location of ShizuokaLocation

Historic Weather in Shizuoka — Graph

°F

Shizuoka temperature yesterday

Maximum temperature yesterday: 78 °F (at 12:00 PM)
Minimum temperature yesterday: 73 °F (at 7:00 AM)
Average temperature yesterday: 76 °F

Past Weeks' High & Low Weather Summary

 TemperatureHumidityPressure
High87 °F (Aug 22, 2:00 PM)98% (Aug 17, 7:00 AM)29.93 "Hg (Aug 17, 7:00 AM)
Low69 °F (Aug 25, 9:00 PM)64% (Aug 24, 2:00 PM)29.50 "Hg (Aug 22, 4:00 PM)
Average79 °F85%29.77 "Hg
* Reported Aug 16 2:00 AM — Aug 31 2:00 AM, Shizuoka, Weather by CustomWeather, © 2015

Note: Actual official high and low records may vary slightly from our data, if they occured in-between our weather recording intervals... More about our weather records

Advertising

Shizuoka weather history for previous 24 hours

 ConditionsComfort  
Time TempWeatherWind HumidityBarometerVisibility
2:00 AM
Mon, Aug 31
78 °FWarm.13 mph90%29.86 "Hg11 mi
1:00 AM78 °FWarm.9 mph93%29.86 "Hg11 mi
12:00 AM76 °FMild.7 mph98%29.87 "Hg8 mi
11:00 PM
Sun, Aug 30
76 °FMild.5 mph96%29.87 "Hg12 mi
10:00 PM76 °FMild.6 mph97%29.87 "Hg12 mi
9:00 PM76 °FMild.3 mph97%29.88 "Hg9 mi
8:00 PM76 °FMild.5 mph97%29.87 "Hg11 mi
7:00 PM75 °FMild.3 mph95%29.85 "Hg12 mi
6:00 PM75 °FLight rain. Overcast.6 mph97%29.85 "Hg12 mi
5:00 PM76 °FLight rain. Cloudy.7 mph95%29.84 "Hg6 mi
4:00 PM77 °FLight rain. Cloudy.7 mph93%29.84 "Hg10 mi
3:00 PM77 °FLight rain. Cloudy.6 mph98%29.86 "Hg4 mi
2:00 PM76 °FLight rain. Cloudy.8 mph97%29.87 "Hg5 mi
1:00 PM77 °FLight rain. Cloudy.3 mph93%29.88 "Hg10 mi
12:00 PM78 °FWarm.5 mph89%29.88 "Hg12 mi
11:00 AM76 °FLight rain. Cloudy.9 mph93%29.90 "Hg7 mi
10:00 AM76 °FRain. Cloudy.12 mph96%29.91 "Hg3 mi
9:00 AM74 °FLight rain. Cloudy.15 mph94%29.87 "Hg6 mi
8:00 AM74 °FLight rain. Cloudy.15 mph93%29.87 "Hg7 mi
7:00 AM73 °FRain. Cloudy.14 mph94%29.87 "Hg3 mi
6:00 AM74 °FRain. Cloudy.12 mph92%29.88 "Hg2 mi
5:00 AM75 °FLight rain. Cloudy.13 mph88%29.86 "Hg12 mi
4:00 AM74 °FLight rain. Overcast.12 mph89%29.88 "Hg12 mi
Weather by CustomWeather, © 2015

See weather overviewHow to use our weather pages